When you browse on this site, cookies collect data to enhance your experience and personalize the content and advertising you see.
Visit our Privacy Policy to learn more. By continuing to use the site, you agree to this use of cookies and data.
  • en Belgique
  • Liste des pays
  • À 7 jours
  • Température de l'eau
  • Carte météo
  • Widgets météo
  • user-avatar
    Se connecter

    Météo par heure à Segedyn

    Ce jour, 6 Avril, Lundi

    Heure Température Précipitation Vent Pression Humidité
    00:00 +8°C° 0 mm 3 m/s 764 mmHg 65%
    01:00 +7°C° 0 mm 4 m/s 764 mmHg 62%
    02:00 +7°C° 0 mm 4 m/s 764 mmHg 58%
    03:00 +7°C° 0 mm 4 m/s 764 mmHg 54%
    04:00 +6°C° 0 mm 4 m/s 765 mmHg 50%
    05:00 +7°C° 0 mm 4 m/s 765 mmHg 49%
    06:00 +7°C° 0 mm 4 m/s 766 mmHg 49%
    07:00 +9°C° 0 mm 3 m/s 767 mmHg 50%
    08:00 +11°C° 0 mm 4 m/s 767 mmHg 45%
    09:00 +12°C° 0 mm 5 m/s 767 mmHg 41%
    10:00 +13°C° 0 mm 6 m/s 768 mmHg 36%
    11:00 +14°C° 0 mm 5 m/s 768 mmHg 35%
    12:00 +15°C° 0 mm 5 m/s 768 mmHg 34%
    13:00 +16°C° 0 mm 5 m/s 768 mmHg 33%
    14:00 +17°C° 0 mm 4 m/s 767 mmHg 34%
    15:00 +17°C° 0 mm 4 m/s 767 mmHg 35%
    16:00 +17°C° 0 mm 4 m/s 767 mmHg 36%
    17:00 +14°C° 0 mm 3 m/s 767 mmHg 41%
    18:00 +12°C° 0 mm 3 m/s 767 mmHg 46%
    19:00 +10°C° 0 mm 2 m/s 767 mmHg 52%
    20:00 +10°C° 0 mm 2 m/s 767 mmHg 53%
    21:00 +9°C° 0 mm 2 m/s 767 mmHg 54%
    22:00 +8°C° 0 mm 2 m/s 768 mmHg 55%
    23:00 +8°C° 0 mm 2 m/s 768 mmHg 53%

    Demain, 7 Avril, Mardi

    Heure Température Précipitation Vent Pression Humidité
    00:00 +7°C° 0 mm 2 m/s 768 mmHg 52%
    01:00 +7°C° 0 mm 2 m/s 768 mmHg 50%
    02:00 +6°C° 0 mm 2 m/s 768 mmHg 49%
    03:00 +6°C° 0 mm 2 m/s 768 mmHg 49%
    04:00 +5°C° 0 mm 2 m/s 768 mmHg 48%
    05:00 +6°C° 0 mm 2 m/s 768 mmHg 47%
    06:00 +7°C° 0 mm 2 m/s 769 mmHg 47%
    07:00 +7°C° 0 mm 2 m/s 769 mmHg 46%
    08:00 +9°C° 0 mm 2 m/s 769 mmHg 44%
    09:00 +12°C° 0 mm 2 m/s 769 mmHg 41%
    10:00 +14°C° 0 mm 2 m/s 769 mmHg 38%
    11:00 +15°C° 0 mm 2 m/s 769 mmHg 37%
    12:00 +16°C° 0 mm 2 m/s 769 mmHg 36%
    13:00 +17°C° 0 mm 2 m/s 768 mmHg 35%
    14:00 +17°C° 0 mm 2 m/s 768 mmHg 35%
    15:00 +18°C° 0 mm 2 m/s 768 mmHg 35%
    16:00 +18°C° 0 mm 2 m/s 767 mmHg 35%
    17:00 +16°C° 0 mm 1 m/s 767 mmHg 40%
    18:00 +14°C° 0 mm 1 m/s 767 mmHg 45%
    19:00 +12°C° 0 mm 1 m/s 767 mmHg 50%
    20:00 +12°C° 0 mm 1 m/s 767 mmHg 52%
    21:00 +11°C° 0 mm 1 m/s 767 mmHg 54%
    22:00 +10°C° 0 mm 1 m/s 767 mmHg 56%
    23:00 +10°C° 0 mm 1 m/s 767 mmHg 57%

    Après-demain, 8 Avril, Mercredi

    Heure Température Précipitation Vent Pression Humidité
    00:00 +9°C° 0 mm 1 m/s 767 mmHg 58%
    01:00 +9°C° 0 mm 1 m/s 767 mmHg 58%
    02:00 +8°C° 0 mm 1 m/s 767 mmHg 58%
    03:00 +8°C° 0 mm 1 m/s 767 mmHg 57%
    04:00 +8°C° 0 mm 1 m/s 767 mmHg 56%
    05:00 +9°C° 0 mm 1 m/s 767 mmHg 55%
    06:00 +10°C° 0 mm 1 m/s 767 mmHg 54%
    07:00 +10°C° 0 mm 0 m/s 767 mmHg 52%
    08:00 +13°C° 0 mm 1 m/s 767 mmHg 47%
    09:00 +14°C° 0 mm 1 m/s 767 mmHg 41%
    10:00 +16°C° 0 mm 1 m/s 766 mmHg 36%
    11:00 +18°C° 0 mm 1 m/s 766 mmHg 34%
    12:00 +19°C° 0 mm 1 m/s 765 mmHg 33%
    13:00 +20°C° 0 mm 1 m/s 765 mmHg 32%
    14:00 +20°C° 0 mm 1 m/s 764 mmHg 33%
    15:00 +20°C° 0 mm 1 m/s 764 mmHg 34%
    16:00 +19°C° 0 mm 2 m/s 763 mmHg 35%
    17:00 +17°C° 0 mm 2 m/s 763 mmHg 41%
    18:00 +15°C° 0 mm 2 m/s 763 mmHg 47%
    19:00 +13°C° 0 mm 1 m/s 762 mmHg 54%
    20:00 +13°C° 0 mm 1 m/s 762 mmHg 56%
    21:00 +12°C° 0 mm 1 m/s 762 mmHg 58%
    22:00 +10°C° 0 mm 0 m/s 762 mmHg 60%
    23:00 +10°C° 0 mm 0 m/s 762 mmHg 61%

    9 Avril, Jeudi

    Heure Température Précipitation Vent Pression Humidité
    00:00 +9°C° 0 mm 0 m/s 762 mmHg 62%
    01:00 +9°C° 0 mm 0 m/s 762 mmHg 63%
    02:00 +9°C° 0 mm 0 m/s 762 mmHg 65%
    03:00 +8°C° 0 mm 0 m/s 761 mmHg 66%
    04:00 +8°C° 0 mm 0 m/s 761 mmHg 67%
    05:00 +9°C° 0 mm 0 m/s 761 mmHg 65%
    06:00 +10°C° 0 mm 0 m/s 761 mmHg 63%
    07:00 +11°C° 0 mm 0 m/s 761 mmHg 61%
    08:00 +13°C° 0 mm 0 m/s 761 mmHg 55%
    09:00 +15°C° 0 mm 0 m/s 761 mmHg 50%
    10:00 +17°C° 0 mm 0 m/s 761 mmHg 44%
    11:00 +18°C° 0 mm 0 m/s 761 mmHg 41%
    12:00 +21°C° 0 mm 1 m/s 761 mmHg 38%
    13:00 +21°C° 0 mm 1 m/s 760 mmHg 35%
    14:00 +21°C° 0 mm 1 m/s 760 mmHg 34%
    15:00 +21°C° 0 mm 1 m/s 759 mmHg 33%
    16:00 +21°C° 0 mm 1 m/s 759 mmHg 33%
    17:00 +19°C° 0 mm 1 m/s 759 mmHg 37%
    18:00 +18°C° 0 mm 1 m/s 759 mmHg 42%
    19:00 +15°C° 0 mm 1 m/s 759 mmHg 46%
    20:00 +14°C° 0 mm 1 m/s 759 mmHg 48%
    21:00 +13°C° 0 mm 1 m/s 759 mmHg 49%
    22:00 +13°C° 0 mm 1 m/s 759 mmHg 50%
    23:00 +12°C° 0 mm 2 m/s 759 mmHg 52%

    10 Avril, Vendredi

    Heure Température Précipitation Vent Pression Humidité
    00:00 +12°C° 0 mm 2 m/s 759 mmHg 53%
    01:00 +10°C° 0 mm 2 m/s 759 mmHg 54%
    02:00 +10°C° 0 mm 2 m/s 759 mmHg 56%
    03:00 +9°C° 0 mm 2 m/s 759 mmHg 58%
    04:00 +9°C° 0 mm 2 m/s 758 mmHg 60%
    05:00 +10°C° 0 mm 2 m/s 759 mmHg 61%
    06:00 +12°C° 0 mm 2 m/s 759 mmHg 61%
    07:00 +13°C° 0 mm 2 m/s 759 mmHg 62%
    08:00 +15°C° 0 mm 2 m/s 759 mmHg 58%
    09:00 +17°C° 0 mm 2 m/s 759 mmHg 54%
    10:00 +18°C° 0 mm 2 m/s 759 mmHg 50%
    11:00 +19°C° 0 mm 2 m/s 759 mmHg 46%
    12:00 +20°C° 0 mm 2 m/s 758 mmHg 43%
    13:00 +21°C° 0 mm 2 m/s 758 mmHg 39%
    14:00 +21°C° 0 mm 2 m/s 758 mmHg 38%
    15:00 +23°C° 0 mm 2 m/s 757 mmHg 38%
    16:00 +23°C° 0 mm 1 m/s 757 mmHg 37%
    17:00 +21°C° 0 mm 1 m/s 757 mmHg 42%
    18:00 +19°C° 0 mm 1 m/s 757 mmHg 48%
    19:00 +16°C° 0 mm 1 m/s 757 mmHg 53%
    20:00 +15°C° 0 mm 1 m/s 757 mmHg 55%
    21:00 +15°C° 0 mm 1 m/s 757 mmHg 56%
    22:00 +14°C° 0 mm 1 m/s 757 mmHg 58%
    23:00 +14°C° 0 mm 1 m/s 757 mmHg 60%

    11 Avril, Samedi

    Heure Température Précipitation Vent Pression Humidité
    00:00 +13°C° 0 mm 2 m/s 757 mmHg 61%
    01:00 +13°C° 0 mm 2 m/s 757 mmHg 63%
    02:00 +13°C° 0 mm 2 m/s 757 mmHg 64%
    03:00 +12°C° 0 mm 2 m/s 757 mmHg 65%
    04:00 +12°C° 0 mm 2 m/s 757 mmHg 66%
    05:00 +13°C° 0 mm 2 m/s 757 mmHg 65%
    06:00 +14°C° 0 mm 2 m/s 758 mmHg 64%
    07:00 +15°C° 0 mm 2 m/s 758 mmHg 62%
    08:00 +17°C° 0 mm 2 m/s 758 mmHg 57%
    09:00 +19°C° 0 mm 2 m/s 758 mmHg 51%
    10:00 +21°C° 0 mm 2 m/s 758 mmHg 45%
    11:00 +23°C° 0 mm 2 m/s 757 mmHg 43%
    12:00 +23°C° 0 mm 2 m/s 757 mmHg 40%
    13:00 +24°C° 0 mm 2 m/s 757 mmHg 38%
    14:00 +24°C° 0 mm 2 m/s 757 mmHg 38%
    15:00 +24°C° 0 mm 2 m/s 756 mmHg 37%
    16:00 +24°C° 0 mm 2 m/s 756 mmHg 37%
    17:00 +21°C° 0 mm 2 m/s 756 mmHg 42%
    18:00 +19°C° 0 mm 2 m/s 756 mmHg 47%
    19:00 +18°C° 0 mm 1 m/s 756 mmHg 52%
    20:00 +18°C° 0 mm 1 m/s 756 mmHg 53%
    21:00 +16°C° 0 mm 1 m/s 756 mmHg 55%
    22:00 +15°C° 0 mm 1 m/s 756 mmHg 57%
    23:00 +15°C° 0 mm 2 m/s 756 mmHg 58%
    Voir plus